www.pogodaiklimat.ru

Погода и климат >> Архив погоды >> Россия >> Магаданская область >> Талон


АРХИВ ПОГОДЫ в Талоне

Время (UTC), дата Ветер
(напр.,м/с)
 
Видим.   Явления Облачность Т
(С)
Тd
(С)
f
(%)
Тe
(С)
Тes
(С)
Комфортность P
(гПа)
Po
(гПа)
Тmin
(С)
Tmax
(С)
R
(мм)
R24
(мм)
S
(см)
12 16.08 ЮЗ 1 50 км дым 3/0
[Ac trans Ci fib]
+9.5 +9.2 98 +9 +9 1018.3 1015.8
15 16.08 штиль 0 50 км 3/0
[Ac trans Ci fib]
+6.5 +6.5 100 +5 +5 1019.9 1017.3
18 16.08 ЮЗ 1 50 км 9/3 1000 м
[Sc Ac trans Ci fib]
+6.2 +6.2 100 +5 +5 1021.3 1018.7
21 16.08 штиль 0 50 км в посл. час туман 3/0
[Ac trans Ci fib]
+9.4 +9.3 99 +8 +11 1020.7 1018.2 +5.1
00 17.08 З 1 50 км дым {туман} 3/0
[Ci fib]
+19.0 +8.1 49 +21 +30 комфорт 1019.9 1017.5
03 17.08 З 1 50 км дым 2 балла +22.7 +8.4 40 +24 +33 комфорт 1019.8 1017.3
06 17.08 СВ 1 50 км дым 3/0
[Ci fib]
+25.0 +7.1 32 +25 +29 комфорт 1018.4 1016.0
09 17.08 ЮВ 2 50 км дым 3/0
[Ci fib]
+16.5 +6.5 52 +17 +17 1019.1 1016.7 +25.5
12 17.08 ЮВ 1 50 км дым 6/0
[Ci fib]
+11.6 +5.5 66 +12 +12 1021.9 1019.4
15 17.08 штиль 0 50 км 3/0
[Ci fib]
+4.7 +4.6 99 +3 +3 1023.9 1021.3
18 17.08 штиль 0 50 км ясно +2.3 +2.3 100 +1 +1 1024.0 1021.3
21 17.08 штиль 0 50 км дым 6/0
[Ci fib]
+6.5 +6.5 100 +5 +8 1023.2 1020.6 +1.5
00 18.08 З 1 50 км 4/0
[Ac trans Ci fib]
+16.3 +6.2 51 +17 +25 1022.5 1020.1
03 18.08 В 1 50 км 8/3 1000 м
[Sc Ac trans Ci fib]
+20.2 +6.9 42 +22 +26 комфорт 1022.5 1020.0
06 18.08 Ю 2 50 км 4/0
[Ci fib]
+20.7 +7.3 42 +22 +25 комфорт 1022.5 1020.0
09 18.08 штиль 0 50 км 8/0
[Ac trans Ci fib]
+13.7 +10.6 82 +13 +13 1021.5 1019.0 +21.6
12 18.08 ЮЗ 1 50 км 6/0
[Ac trans Ci fib]
+7.5 +7.4 99 +6 +6 1023.9 1021.3
15 18.08 Ю 1 50 км 8/0
[Ac trans Ci fib]
+6.0 +6.0 100 +5 +5 1023.9 1021.3
18 18.08 штиль 0 50 км 8/0
[Ac trans Ci fib]
+4.8 +4.8 100 +4 +4 1025.3 1022.7
21 18.08 ЮЗ 1 50 км 9/1 1000 м
[Sc Ac trans Ci fib]
+9.8 +8.8 93 +9 +10 1024.7 1022.2 +4.0
00 19.08 ЮВ 1 50 км 9/0
[Ac trans]
+19.2 +10.2 56 +21 +26 комфорт 1024.6 1022.2
03 19.08 Ю 2 50 км 9/5 1000 м
[Sc Ci fib]
+20.9 +9.5 48 +23 +24 комфорт 1025.2 1022.7
06 19.08 Ю 3 50 км 9/3 1000 м
[Sc Ac trans]
+20.5 +10.3 52 +22 +23 комфорт 1023.8 1021.3
09 19.08 Ю 1 50 км 9/3 1000 м
[Sc Ac trans Ci fib]
+17.7 +11.5 67 +19 +19 1023.8 1021.3 +22.1
12 19.08 Ю 1 50 км 9/3 1000 м
[Sc Ac trans]
+12.3 +11.4 94 +12 +12 1025.3 1022.7
15 19.08 Ю 1 50 км 6/0
[Ac trans Ci fib]
+8.7 +8.3 97 +8 +8 1025.3 1022.7
18 19.08 ЮЗ 1 50 км 8/0
[Ac trans Ci fib]
+5.6 +5.6 100 +4 +4 1025.3 1022.7
21 19.08 штиль 0 50 км 3/0
[Ci fib]
+10.3 +10.1 99 +9 +12 1024.1 1021.6 +4.9
00 20.08 Ю 1 50 км 6/0
[Ac trans Ci fib]
+18.3 +10.1 59 +20 +27 1023.3 1020.8
03 20.08 ЮЗ 1 50 км 1/1 1000 м
[Sc]
+22.6 +11.6 50 +25 +35 комфорт 1022.5 1020.0
06 20.08 Ю 3 50 км 3/1 1000 м
[Sc Ci fib]
+22.0 +11.7 52 +24 +27 комфорт 1021.2 1018.7
09 20.08 Ю 2 50 км 9/0
[Ci fib]
+18.4 +11.3 63 +19 +19 1020.9 1018.5 +23.6
12 20.08 штиль 0 50 км 9/0
[Ci fib]
+10.0 +9.5 97 +9 +9 1022.6 1020.0
15 20.08 ЮЗ 1 50 км 9/0
[Ac trans Ci fib]
+7.8 +7.7 99 +7 +7 1022.6 1020.0
18 20.08 штиль 0 50 км 8/0
[Ac trans Ci fib]
+5.3 +5.3 100 +4 +4 1022.6 1020.0
21 20.08 штиль 0 500 м туман ?/? +9.0 +8.9 99 +8 +8 1021.2 1018.7 +5.1
00 21.08 З 1 50 км {туман} 8/3 1000 м
[Sc Ac trans Ci fib]
+17.0 +11.4 70 +18 +22 1019.9 1017.4
03 21.08 СЗ 1 50 км 9/0
[Ac trans]
+22.9 +10.7 46 +25 +26 комфорт 1019.8 1017.3
06 21.08 СЗ 1 50 км 4/0
[Ac lent Ci fib]
+25.0 +11.5 43 +26 +29 жарко 1018.4 1016.0
09 21.08 штиль 0 50 км 9/3 1000 м
[Sc Ci fib]
+19.6 +15.1 75 +21 +21 комфорт 1016.6 1014.2 +25.1
12 21.08 штиль 0 50 км 8/0
[Ac trans Ci fib]
+12.4 +11.9 97 +12 +12 1018.5 1016.0
15 21.08 ЮЗ 1 50 км 9/0
[Ci fib]
+9.0 +8.9 99 +8 +8 1018.6 1016.0
18 21.08 Ю 1 50 км 9/0
[Ac trans Ci fib]
+7.9 +7.9 100 +7 +7 1018.6 1016.0
21 21.08 штиль 0 50 км в посл. час туман 9/0
[Cs]
+10.9 +10.7 99 +10 +12 1017.9 1015.4 +7.3
00 22.08 ЮЗ 1 50 км {туман} 9/0
[Ac trans Cs]
+17.8 +13.0 73 +19 +25 1017.2 1014.8
03 22.08 СЗ 1 50 км 9/0
[Ac trans Ci sp]
+24.0 +12.9 50 +26 +27 жарко 1017.1 1014.7
06 22.08 В 1 50 км 9/0
[Ac trans Ci sp]
+25.8 +13.3 46 +28 +28 жарко 1015.7 1013.3
09 22.08 штиль 0 50 км 9/3 1000 м
[Sc Ac trans Ci sp]
+18.9 +15.7 82 +20 +20 1015.5 1013.1 +26.3
12 22.08 штиль 0 50 км 9 баллов +13.0 +12.5 97 +12 +12 1017.2 1014.7
15 22.08 штиль 0 50 км 9 баллов +11.3 +11.0 98 +11 +11 1018.6 1016.0
18 22.08 Ю 1 500 м туман н/о +11.4 +11.2 99 +11 1018.6 1016.0
21 22.08 штиль 0 500 м туман ?/? +12.2 +12.0 99 +12 +12 1017.9 1015.4 +10.7 0.0
00 23.08 штиль 0 50 км в посл. час туман 10/10 300 м
[St]
+13.5 +13.2 98 +13 +13 1018.2 1015.7
03 23.08 СВ 1 50 км 9 баллов +22.1 +15.4 66 +26 +27 душно 1018.5 1016.0
06 23.08 Ю 1 50 км 9 баллов +22.5 +13.8 58 +26 +26 жарко 1017.2 1014.7

 

Местоположение метеостанции Талон (Магаданская область, Россия): широта 59.76 долгота 148.60 высота над уровнем моря 21 м.

В архиве по умолчанию представлена погода в Талоне за последнюю неделю. Архивные данные за месяц целиком и за предыдущие месяцы, начиная с января 2011 года, Вы можете получить, выбрав интересующий диапазон дат из раскрывающегося списка и нажав кнопку "Ввод!".


*Определитесь, кто Вы:
робот инопланетянин человек

Внимание! Время в таблицах - всемирное. Для получения местного времени необходимо прибавить поправку, которая равна 11 ч.

Смотрите также архив погоды в соседних городах и на ближайших метеорологических станциях:

Погода на Острове Спафарьева (Магаданская область, Россия) (72 км)
Погода в Армани (Магаданская область, Россия) (85 км)
Погода в Магадане (Магаданская область, Россия) (120 км)
Погода в Нагаева (Магаданская область, Россия) (122 км)
Погода в Палатке (Магаданская область, Россия) (134 км)
Погода в Оле (Магаданская область, Россия) (148 км)
Погода в Мадауне (Магаданская область, Россия) (149 км)
Погода в Усть-Омчуге (Магаданская область, Россия) (161 км)
Погода на Мысе Алевина (Магаданская область, Россия) (185 км)
Погода в Колымской (Магаданская область, Россия) (239 км)

Пояснения к столбцам:

Ветер - указаны скорость ветра в м/с - средняя за 10 мин, порывы в срок и между сроками (в фигурных скобках) и направление, откуда дует ветер: С - северный, СВ - северо-восточный, В - восточный, ЮВ - юго-восточный, Ю - южный, ЮЗ - юго-западный, З - западный, СЗ - северо-западный.
Видимость - горизонтальная дальность видимости в метрах или километрах. При видимости от 1 до 10 км при отсутствии осадков обычно наблюдается дымка, при ухудшении видимости до 1 км и менее - туман. В сухую погоду видимость может ухудшаться дымом, пылью или мглою.
Явления - указаны атмосферные явления, наблюдавшиеся в срок или в последний час перед сроком; фигурными скобками обозначены явления, наблюдавшиеся между сроками (за 1-3 часа до срока); квадратными скобками обозначены град или гололедные отложения с указанием их диаметра в мм.
Облачность - указаны через наклонную черту общая и нижняя облачность в баллах и высота нижней границы облаков в метрах; квадратными скобками обозначены формы облаков: Ci - перистые, Cs - перисто-слоистые, Cc - перисто-кучевые, Ac - высококучевые, As - высокослоистые, Sc - слоисто-кучевые, Ns - слоисто-дождевые, Cu - кучевые, Cb - кучево-дождевые. Подробнее классификацию облаков см. в Атласе облаков (PDF).
T - Температура воздуха - температура, измеренная на высоте 2 м над землей.
Td - Температура точки росы - температура, при понижении до которой содержащийся в воздухе водяной пар достигнет насыщения.
f - Относительная влажность воздуха - влажноcть воздуха, измеренная на высоте 2 м над землей.
Te - Эффективная температура - температура, которую ощущает одетый по сезону человек в тени. Характеристика душности погоды. При расчете учитывается влияние влажности воздуха и скорости ветра на теплоощущения человека.
Tes - Эффективная температура на солнце - температура, которую ощущает человек, с поправкой на солнечный нагрев. Характеристика знойности погоды. Зависит от высоты солнца над горизонтом, облачности и скорости ветра. Ночью, в пасмурную погоду, а также при ветре 12 м/с и более поправка равна нулю.
P - Атмосферное давление - приведенное к уровню моря атмосферное давление.
Po - Атмосферное давление - измеренное на уровне метеостанции атмосферное давление.
Tmin - Минимальная температура - минимум температуры воздуха на высоте 2 м над землей.
Tmax - Максимальная температура - максимум температуры воздуха на высоте 2 м над землей.
R - Количество осадков - Количество выпавших осадков за период времени, мм. При наведении курсора мыши на число - период времени, за который выпало указанное количество осадков.
R24 - Количество осадков - Количество выпавших осадков за 24 часа, мм.
S - Снежный покров - Высота снежного покрова, см. При наведении курсора мыши на число - состояние снежного покрова и степень покрытия местности в баллах.